Back to catalog

STARLINK-38177

AliveCommunicationsSSO
NORAD 100234·PAYLOAD·🇺🇸 United States

Launched May 3, 2026 from Vandenberg Space Force Base

Loading…

Next Passes (next 24 hours)

TLE

FreshSource: Space-Track

Epoch: Sep 14, 2026, 09:28 UTC

1 A0234U 26177X   26257.39472369  .00050475  00000-0  92455-3 0  9996
2 A0234  97.2829 308.1091 0000256  69.3005 290.8273 15.49166052  6417

Track STARLINK-38177 in real time with AllMySat

Download on the App Store